User: anonymous   Login
Location: �perlecques
(50.8057°N, 2.1521°E)
Time: 13:16:54
(UTC+00:00)
Language:

CUBEBUG 2 - Orbit

View from above orbital plane
View from above orbital plane
View from above satellite
View from above satellite

Ground track
Ground track

The orbit data is extracted from the following two-line orbital elements,

1 39440U 13066AA  21266.86725584  .00000424  00000-0  65539-4 0  9990
2 39440  97.6872 231.4110 0078219 276.5146  82.7164 14.76323894420945
Epoch (UTC): 23 September 2021 20:48:50
Eccentricity: 0.0078219
inclination: 97.6872°
perigee height: 586 km
apogee height: 696 km
right ascension of ascending node: 231.4110°
argument of perigee: 276.5146°
revolutions per day: 14.76323894
mean anomaly at epoch: 82.7164°
orbit number at epoch: 42094

The dashed part of the orbit path shows where the satellite is in the earth's shadow,  

DLR